WetterOnline ( https://www.wetteronline.ch )

Wetter aktuell Ostrava

Aktuelles Wetter: Ostrava (260m)

6-stündlich | Neueste Meldungen
Ortszeit Temperatur Wetter
Fr, 15.11. 13:00 9.2° C wolkig
Fr, 15.11. 7:00 3.3° C Nebel (zunehmend)
Fr, 15.11. 1:00 4.4° C Nebel
Do, 14.11. 19:00 4.4° C bedeckt
Do, 14.11. 13:00 8.1° C fast wolkenlos
Do, 14.11. 7:00 1.9° C leicht bewölkt
Do, 14.11. 1:00 3.5° C bedeckt
Mi, 13.11. 19:00 4.2° C Regen
Ortszeit Temperatur Wetter
Fr, 15.11. 15:30 14° C leicht bewölkt
Fr, 15.11. 15:00 11.0° C wolkig
Fr, 15.11. 14:30 12° C leicht bewölkt
Fr, 15.11. 14:00 10.6° C wolkig
Fr, 15.11. 13:30 10° C leicht bewölkt
Fr, 15.11. 13:00 9.2° C wolkig
Fr, 15.11. 12:30 7° C leicht bewölkt
Fr, 15.11. 12:12 7° C leicht bewölkt
Ortszeit Relative Feuchte Sichtweite
Fr, 15.11. 13:00 88% 7 km
Fr, 15.11. 7:00 100% 100 m
Fr, 15.11. 1:00 99% 0.6 km
Do, 14.11. 19:00 98% 3.0 km
Do, 14.11. 13:00 69% 25 km
Do, 14.11. 7:00 90% 20 km
Do, 14.11. 1:00 91% 12 km
Mi, 13.11. 19:00 97% 6 km
Ortszeit Relative Feuchte Sichtweite
Fr, 15.11. 15:30 63% >10 km
Fr, 15.11. 15:00 81% 12 km
Fr, 15.11. 14:30 77% >10 km
Fr, 15.11. 14:00 84% 8 km
Fr, 15.11. 13:30 87% 7 km
Fr, 15.11. 13:00 88% 7 km
Fr, 15.11. 12:30 100% 6 km
Fr, 15.11. 12:12 100% 4.0 km
Ortszeit Niederschlagsmenge Niederschlagsart
Fr, 15.11. 13:00 0.0 l/m2 in 6 Std. Nebel
Fr, 15.11. 7:00 0.0 l/m2 in 12 Std. Nebel
Fr, 15.11. 1:00 0.0 l/m2 in 6 Std. Nebel
Do, 14.11. 19:00 0.0 l/m2 in 12 Std. -
Do, 14.11. 13:00 0.0 l/m2 in 6 Std. -
Do, 14.11. 7:00 3 l/m2 in 12 Std. -
Do, 14.11. 1:00 3 l/m2 in 6 Std. Regen
Mi, 13.11. 19:00 11 l/m2 in 12 Std. Regen
Ortszeit Niederschlagsmenge Niederschlagsart
Fr, 15.11. 15:30 keine Meldung -
Fr, 15.11. 15:00 0.0 l/m2 in 1 Std. -
Fr, 15.11. 14:30 keine Meldung -
Fr, 15.11. 14:00 0.0 l/m2 in 1 Std. -
Fr, 15.11. 13:30 keine Meldung -
Fr, 15.11. 13:00 0.0 l/m2 in 1 Std. Nebel
Fr, 15.11. 12:30 keine Meldung -
Fr, 15.11. 12:12 keine Meldung -
Ortszeit Stärke Spitze Richtung
km/h Bft. km/h Grad Sektor
Fr, 15.11. 13:00 4 1 - uml. uml.
Fr, 15.11. 7:00 4 1 - uml. uml.
Fr, 15.11. 1:00 4 1 - uml. uml.
Do, 14.11. 19:00 11 2 - 10° N
Do, 14.11. 13:00 11 2 - 60° NO
Do, 14.11. 7:00 11 2 - 230° SW
Do, 14.11. 1:00 22 4 - 230° SW
Mi, 13.11. 19:00 7 2 - 40° NO
Ortszeit Stärke Spitze Richtung
km/h Bft. km/h Grad Sektor
Fr, 15.11. 15:30 13 3 - 150° SO
Fr, 15.11. 15:00 7 2 - 140° SO
Fr, 15.11. 14:30 6 1 - 340° N
Fr, 15.11. 14:00 7 2 - 340° N
Fr, 15.11. 13:30 2 1 - uml. uml.
Fr, 15.11. 13:00 4 1 - uml. uml.
Fr, 15.11. 12:30 6 1 - 250° W
Fr, 15.11. 12:12 2 1 - uml. uml.
Ortszeit Untergrenze Bedeckung Gattung
total tief tief mittel hoch
Fr, 15.11. 13:00 1440 m 7/8 1/8 Sc - Ci
Fr, 15.11. 7:00 30 m - - - - -
Fr, 15.11. 1:00 690 m 8/8 8/8 St - -
Do, 14.11. 19:00 180 m 8/8 8/8 St - -
Do, 14.11. 13:00 690 m 2/8 1/8 Cu - Ci
Do, 14.11. 7:00 390 m 3/8 3/8 St - -
Do, 14.11. 1:00 390 m 8/8 8/8 St - -
Mi, 13.11. 19:00 240 m 8/8 8/8 St - -
Ortszeit Bedeckungsgrad in Achtel und Wolkenuntergrenze
Fr, 15.11. 15:30 1-2(1350m)
Fr, 15.11. 15:00 1(1290m) 7(6000m)
Fr, 15.11. 14:30 3-4(1290m)
Fr, 15.11. 14:00 1(1290m) 7(6900m)
Fr, 15.11. 13:30 1-2(1440m)
Fr, 15.11. 13:00 1(1440m) 7(6900m)
Fr, 15.11. 12:30 1-2(1470m)
Fr, 15.11. 12:12 1-2(120m)
Ortszeit Luftdruck NN (hPa) Tendenz (hPa in 3 Std.)
Fr, 15.11. 13:00 1011 - 1,3
Fr, 15.11. 7:00 1012 - 0,2
Fr, 15.11. 1:00 1013 - 0,3
Do, 14.11. 19:00 1013 0,0
Do, 14.11. 13:00 1013 - 0,5
Do, 14.11. 7:00 1012 + 1,2
Do, 14.11. 1:00 1009 + 2,2
Mi, 13.11. 19:00 1004 + 1,0
Ortszeit Luftdruck NN (hPa) Tendenz (hPa in 3 Std.)
Fr, 15.11. 15:30 1009 keine Meldung
Fr, 15.11. 15:00 1010 - 0,9
Fr, 15.11. 14:30 1009 keine Meldung
Fr, 15.11. 14:00 1010 - 0,7
Fr, 15.11. 13:30 1009 keine Meldung
Fr, 15.11. 13:00 1011 - 1,3
Fr, 15.11. 12:30 1010 keine Meldung
Fr, 15.11. 12:12 1010 keine Meldung
Ortszeit Schneehöhe (cm)
Fr, 15.11. 13:00 -
Fr, 15.11. 7:00 -
Fr, 15.11. 1:00 -
Do, 14.11. 19:00 0
Do, 14.11. 13:00 -
Do, 14.11. 7:00 -
Do, 14.11. 1:00 -
Mi, 13.11. 19:00 -
Ortszeit Schneehöhe (cm)
Fr, 15.11. 15:30 -
Fr, 15.11. 15:00 -
Fr, 15.11. 14:30 -
Fr, 15.11. 14:00 -
Fr, 15.11. 13:30 -
Fr, 15.11. 13:00 -
Fr, 15.11. 12:30 -
Fr, 15.11. 12:12 -
Link zu dieser Seite / Seite empfehlen

Das Wetter in ...